User: anonymous   Login
Location: Unspecified
(0.0000°N, 0.0000°E)
Time: 05:22:15
(UTC+00:00)
Language:

CP4 - Orbit

View from above orbital plane
View from above orbital plane
View from above satellite
View from above satellite

Ground track
Ground track

The orbit data is extracted from the following two-line orbital elements,

1 31132U 07012Q   19083.53039695  .00000085  00000-0  27642-4 0  9999
2 31132  98.1153  31.4105 0079362 283.4013  75.8349 14.59059310634546
Epoch (UTC): 24 March 2019 12:43:46
Eccentricity: 0.0079362
inclination: 98.1153°
perigee height: 640 km
apogee height: 752 km
right ascension of ascending node: 31.4105°
argument of perigee: 283.4013°
revolutions per day: 14.59059310
mean anomaly at epoch: 75.8349°
orbit number at epoch: 63454

The dashed part of the orbit path shows where the satellite is in the earth's shadow,  

DLR